Regional Weather Roundup
Issued by NWS New Orleans/Baton Rouge, LA

Home | Current Version | Previous Version | Text Only | Print | Product List | Glossary On
Versions: 1 2 3 4 5 6 7 8 9 10 11 12 13 14 15 16 17 18 19 20 21 22 23 24 25 26 27 28 29 30 31 32 33 34 35 36 37 38 39 40 41 42 43 44 45 46 47 48 49 50
448
ASUS44 KLIX 012205
RWRLIX
NEW ORLEANS REGIONAL WEATHER ROUNDUP
NATIONAL WEATHER SERVICE NEW ORLEANS LA
500 PM CDT FRI AUG 01 2014

NOTE: "FAIR" INDICATES FEW OR NO CLOUDS BELOW 12,000 FEET WITH NO
      SIGNIFICANT WEATHER AND/OR OBSTRUCTIONS TO VISIBILITY.
      SKY/WX - SKY CONDITION AND SIGNIFICANT WEATHER.
      TMP - AIR TEMPERATURE.     DP    - DEWPOINT TEMPERATURE.
      RH  - RELATIVE HUMIDITY.   PRES  - PRESSURE.
      HI  - HEAT INDEX.          WCI   - WIND CHILL INDEX.

*  THESE STATIONS ARE NOT NWS OR FAA STATIONS AND ARE NOT UNDER
   NWS QUALITY CONTROL.

LAZ038-040-048-061>063-065>067-069-012300-
SOUTHEAST LOUISIANA

CITY           SKY/WX    TMP DP  RH WIND       PRES   REMARKS
N.O. AUDUBON     N/A     87  70  56 MISG        N/A
N.O. INTL ARPT CLOUDY    86  66  51 S8        29.96F
N.O. LAKEFRONT CLOUDY    84  70  62 E8        29.97F
N.O. DOWNTOWN*   N/A     88  64  45 S6        29.96F
SLIDELL        CLOUDY    84  70  62 NE7       29.97F
BATON ROUGE    PTSUNNY   79  73  82 SE7       29.96F
BOOTHVILLE     PTSUNNY   85  70  60 NE5       29.99F
BELLE CHASSE   CLOUDY    85  65  51 S5        29.96F
BOGALUSA*      DRIZZLE   82  70  67 CALM      30.00F
GALLIANO*      NOT AVBL
NEW ROADS*     CLOUDY    80  75  83 MISG      29.95F
GONZALES*      LGT RAIN  78  78  99 CALM      29.96F
HAMMOND*       CLOUDY    84  70  61 E3        29.98F
HOUMA*         CLOUDY    82  68  61 CALM      29.96F
PORT FOURCHON* CLEAR     84  68  58 S3        29.99S

$$

MSZ070-080>082-012300-
SOUTHERN MISSISSIPPI

CITY           SKY/WX    TMP DP  RH WIND       PRES   REMARKS
MCCOMB         RAIN      74  71  91 NE5       30.00F FOG
GULFPORT       CLOUDY    86  67  52 N3        29.98F
BILOXI         CLOUDY    83  66  56 CALM      29.98F
PASCAGOULA     PTSUNNY   85  68  56 N5        29.98F

$$

COASTAL OBSERVATIONS
LAKE AND NEARSHORE STATIONS

STATION/POSITION TIME  TEMP    WIND        PRES    WAVE
                       AIR SEA DIR/SP/G            HT/PER
                 (UTC) (F)     (DEG/KT/KT) (MB)    (FT/S)
PASCAGOULA       2200   84     220/  5/  6 1014.9
WAVELAND YACHT   2200   82     140/  4/  6 1014.8
GRAND ISLE       2200   83 86  150/  5/  6 1015.7
SOUTHWEST PASS   2200   91 86  120/  1/  3 1015.6
NEW CANAL        2200   86 83  170/  3/  4 1015.1
SHELL BEACH      2200   84 82   50/  2/  4 1014.8

OFFSHORE STATIONS

STATION/POSITION TIME  TEMP    WIND        PRES    WAVE
                       AIR SEA DIR/SP/G            HT/PER
                 (UTC) (F)     (DEG/KT/KT) (MB)    (FT/S)
64 S DAUPHIN ISL 2144   83 87  330/  4/  6 1015.1

$$




USA.gov is the U.S. government's official web portal to all federal, state and local government web resources and services.